This demonstration page uses our WeatherBlox Daily Observations layout. Learn more.

39.29038, -76.61219

Hourly Observations for October 6, 2018

Temp ( °F °C ) Dew Point ( °F °C ) Humidity (%) Winds ( mph kmh ) Pressure ( in mb ) Visibility ( mi km ) Precip ( " mm )
12:54 am 00:54 undefined 65 18.3 63 17.2 93 93 undefined N/A 30.18 1022 N/A 0 0
1:54 am 01:54 undefined 65 18.3 63 17.2 93 93 undefined N/A 30.17 1022 N/A 0 0
2:54 am 02:54 undefined 65 18.3 64 17.8 97 97 undefined N/A 30.16 1021 N/A 0 0
3:54 am 03:54 undefined 65 18.3 64 17.8 97 97 undefined N/A 30.15 1021 N/A 0 0
4:54 am 04:54 undefined 65 18.3 64 17.8 97 97 undefined N/A 30.16 1021 N/A 0 0
5:54 am 05:54 undefined 65 18.3 64 17.8 97 97 undefined N/A 30.17 1022 N/A 0 0
6:54 am 06:54 undefined 66 18.9 64 17.8 93 93 undefined N/A 30.18 1022 N/A 0 0
7:54 am 07:54 undefined 66 18.9 64 17.8 93 93 undefined N/A 30.19 1023 N/A 0 0
8:54 am 08:54 undefined 67 19.4 65 18.3 93 93 undefined N/A 30.2 1023 N/A 0 0
9:54 am 09:54 undefined 69 20.6 65 18.3 87 87 undefined N/A 30.21 1023 N/A 0 0
10:54 am 10:54 undefined 70 21.1 66 18.9 87 87 undefined N/A 30.21 1023 N/A 0 0
11:54 am 11:54 undefined 71 21.7 66 18.9 84 84 undefined N/A 30.2 1023 N/A 0 0
12:54 pm 12:54 undefined 73 22.8 67 19.4 81 81 undefined N/A 30.19 1022 N/A 0 0
1:54 pm 13:54 undefined 73 22.8 67 19.4 81 81 undefined N/A 30.18 1022 N/A 0 0
2:54 pm 14:54 undefined 73 22.8 67 19.4 81 81 undefined N/A 30.17 1022 N/A 0 0
3:54 pm 15:54 undefined 74 23.3 67 19.4 79 79 undefined N/A 30.16 1021 N/A 0 0
4:54 pm 16:54 undefined 74 23.3 67 19.4 79 79 undefined N/A 30.16 1021 N/A 0 0
5:54 pm 17:54 undefined 74 23.3 67 19.4 79 79 undefined N/A 30.16 1021 N/A 0 0
6:54 pm 18:54 undefined 73 22.8 67 19.4 81 81 undefined N/A 30.16 1022 N/A 0 0
7:54 pm 19:54 undefined 73 22.8 67 19.4 81 81 undefined N/A 30.17 1022 N/A 0 0
8:54 pm 20:54 undefined 73 22.8 68 20 84 84 undefined N/A 30.18 1022 N/A 0 0
9:54 pm 21:54 undefined 73 22.8 68 20 84 84 undefined N/A 30.19 1022 N/A 0 0
10:54 pm 22:54 undefined 73 22.8 68 20 84 84 undefined N/A 30.18 1022 N/A 0 0
11:54 pm 23:54 undefined 73 22.8 68 20 84 84 undefined N/A 30.17 1022 N/A 0 0

Powered by AerisWeather